This is the latest recevied weather packets stored in our database for station/object W4MJZ-1. If no packets are shown the sender has not sent any weather packets the latest 10 day(s).
| Time | Temp. | Humidity | Pressure | Rain* | Wind** | Luminosity | Snow |
|---|---|---|---|---|---|---|---|
| 1777417339 | 30° C | 12% | 1021.5 hPa | 0 mm | - | - | - |
| 1777417039 | 30° C | 12% | 1021.1 hPa | 0 mm | - | - | - |
| 1777416739 | 30.56° C | 13% | 1021.1 hPa | 0 mm | - | - | - |
| 1777416444 | 29.44° C | 13% | 1021.1 hPa | 0 mm | - | - | - |
| 1777416139 | 29.44° C | 14% | 1021.5 hPa | 0 mm | - | - | - |
| 1777415886 | 28.89° C | 14% | 1021.5 hPa | 0 mm | - | - | - |
| 1777415842 | 28.89° C | 14% | 1021.5 hPa | 0 mm | - | - | - |
| 1777415539 | 30° C | 13% | 1021.5 hPa | 0 mm | - | - | - |
| 1777415239 | 29.44° C | 14% | 1021.5 hPa | 0 mm | - | - | - |
| 1777414939 | 30° C | 13% | 1021.1 hPa | 0 mm | - | - | - |
| 1777414639 | 30.56° C | 13% | 1021.1 hPa | 0 mm | - | - | - |
| 1777414339 | 30° C | 14% | 1021.5 hPa | 0 mm | - | - | - |
| 1777414039 | 30.56° C | 12% | 1021.5 hPa | 0 mm | - | - | - |
| 1777413739 | 32.22° C | 12% | 1021.5 hPa | 0 mm | - | - | - |
| 1777413439 | 30.56° C | 13% | 1021.5 hPa | 0 mm | - | - | - |
| 1777413139 | 30° C | 13% | 1021.8 hPa | 0 mm | - | - | - |
| 1777412841 | 30° C | 13% | 1021.8 hPa | 0 mm | - | - | - |
| 1777412539 | 30.56° C | 13% | 1021.8 hPa | 0 mm | - | - | - |
| 1777412239 | 28.89° C | 13% | 1022.2 hPa | 0 mm | - | - | - |
| 1777411940 | 28.89° C | 13% | 1021.8 hPa | 0 mm | - | - | - |
| 1777411639 | 29.44° C | 13% | 1022.2 hPa | 0 mm | - | - | - |
| 1777411339 | 30° C | 13% | 1022.2 hPa | 0 mm | - | - | - |
| 1777411039 | 29.44° C | 13% | 1021.8 hPa | 0 mm | - | - | - |
| 1777410739 | 30° C | 13% | 1022.6 hPa | 0 mm | - | - | - |
| 1777410481 | 30° C | 13% | 1021.8 hPa | 0 mm | - | - | - |
* Rain latest hour (hover to see other rain measurements)
** Current wind speed in m/s (hover to see current wind gust speed)